Weather History for Douglas, WY

Change the Weather History Date:

Sunday, January 20, 2013

  Actual Average Record
Temperature  
Mean Temperature 21 °F 25 °F  
Max Temperature 34 °F 39 °F 63 °F (2005)
Min Temperature 7 °F 12 °F -5 °F (2007)
Degree Days  
Heating Degree Days 44 40  
Month to date heating degree days 846 802  
Since 1 July heating degree days 3567 3891  
Cooling Degree Days 0 0  
Month to date cooling degree days 0 0  
Year to date cooling degree days 0 0  
Moisture  
Dew Point 12 °F    
Average Humidity 62    
Maximum Humidity 84    
Minimum Humidity 39    
Precipitation  
Precipitation 0.00 in 0.01 in 0.05 in (2001)
Month to date precipitation T 0.20  
Year to date precipitation T 0.20  
Sea Level Pressure  
Sea Level Pressure 30.33 in    
Wind  
Wind Speed 7 mph (NNW)    
Max Wind Speed 21 mph    
Max Gust Speed 25 mph    
Visibility 10 miles    
Events      
T = Trace of Precipitation, MM = Missing Value Source: NWS Daily Summary

Daily Weather History Graph

Daily Weather History Graph

Search for Another Location

Airport:

Trip Planner

Search our weather history database for the weather conditions in past years. The results will help you decide how hot, cold, wet, or windy it might be!

Date:

Astronomy

Jan. 20, 2013 Rise Set
Actual Time 7:26 AM MST 4:59 PM MST
Civil Twilight 6:55 AM MST 5:30 PM MST
Nautical Twilight 6:20 AM MST 6:05 PM MST
Astronomical Twilight 5:47 AM MST 6:38 PM MST
Moon 12:02 PM MST (1/20) 2:00 AM MST (1/20)
Length of Visible Light 10h 35m
Length of Day
9h 33m
Waxing Gibbous, 67% of the Moon is Illuminated
Jan 20
Waxing Gibbous
Jan 26
Full
Feb 3
Last Quarter
Feb 10
New
Feb 17
First Quarter

Hourly Weather History & Observations

Time (MST) Temp. Windchill Dew Point Humidity Pressure Visibility Wind Dir Wind Speed Gust Speed Precip Events Conditions
12:53 AM 23.0 °F - 10.0 °F 58% 30.14 in 10.0 mi Calm Calm - N/A   Clear
1:53 AM 27.0 °F 23.0 °F 9.0 °F 47% 30.13 in 10.0 mi NNW 3.5 mph - N/A   Clear
2:53 AM 28.0 °F 21.7 °F 9.0 °F 45% 30.14 in 10.0 mi North 5.8 mph - N/A   Clear
3:53 AM 28.0 °F 19.3 °F 10.0 °F 47% 30.15 in 10.0 mi NNW 9.2 mph - N/A   Clear
4:53 AM 30.9 °F 21.2 °F 10.0 °F 42% 30.22 in 10.0 mi NNW 12.7 mph - N/A   Clear
5:53 AM 30.0 °F 18.3 °F 9.0 °F 41% 30.26 in 10.0 mi NW 17.3 mph 23.0 mph N/A   Clear
6:53 AM 26.1 °F 16.2 °F 9.0 °F 49% 30.30 in 10.0 mi West 10.4 mph - N/A   Clear
7:53 AM 28.0 °F 17.0 °F 12.0 °F 51% 30.37 in 10.0 mi WNW 13.8 mph - N/A   Clear
8:53 AM 28.0 °F 15.7 °F 16.0 °F 61% 30.40 in 10.0 mi NNW 17.3 mph 25.3 mph N/A   Mostly Cloudy
9:53 AM 28.0 °F 16.5 °F 17.1 °F 63% 30.45 in 10.0 mi NNW 15.0 mph - N/A   Overcast
10:04 AM 28.4 °F 16.6 °F 17.6 °F 64% 30.33 in 10.0 mi NNW 16.1 mph - N/A   Overcast
10:36 AM 28.4 °F 19.1 °F 17.6 °F 64% 30.34 in 10.0 mi NNW 10.4 mph - N/A   Overcast
10:53 AM 28.9 °F 19.8 °F 17.1 °F 61% 30.44 in 10.0 mi North 10.4 mph - N/A   Overcast
11:53 AM 30.0 °F 21.1 °F 17.1 °F 59% 30.40 in 10.0 mi North 10.4 mph - N/A   Overcast
12:53 PM 32.0 °F 23.0 °F 16.0 °F 52% 30.36 in 10.0 mi North 11.5 mph 18.4 mph N/A   Overcast
1:53 PM 33.1 °F 26.1 °F 17.1 °F 52% 30.32 in 10.0 mi North 8.1 mph - N/A   Partly Cloudy
2:53 PM 34.0 °F 27.2 °F 16.0 °F 48% 30.30 in 10.0 mi North 8.1 mph - N/A   Clear
3:53 PM 30.9 °F 22.8 °F 16.0 °F 54% 30.31 in 10.0 mi NNE 9.2 mph - N/A   Clear
4:53 PM 26.1 °F 19.4 °F 14.0 °F 60% 30.33 in 10.0 mi NE 5.8 mph - N/A   Clear
5:53 PM 21.0 °F - 12.9 °F 71% 30.36 in 10.0 mi Calm Calm - N/A   Clear
6:53 PM 18.0 °F - 10.9 °F 74% 30.39 in 10.0 mi Calm Calm - N/A   Clear
7:53 PM 16.0 °F - 10.0 °F 77% 30.40 in 10.0 mi Calm Calm - N/A   Clear
8:53 PM 12.9 °F - 8.1 °F 81% 30.41 in 10.0 mi Calm Calm - N/A   Clear
9:53 PM 12.9 °F - 7.0 °F 77% 30.40 in 10.0 mi Calm Calm - N/A   Clear
10:53 PM 9.0 °F - 5.0 °F 84% 30.41 in 10.0 mi Calm Calm - N/A   Clear
11:53 PM 8.1 °F -3.2 °F 3.0 °F 80% 30.40 in 10.0 mi NNW 6.9 mph - N/A   Clear